Hourly Data Report for August 09, 2017

All times are specified in Local Standard Time (LST). Add 1 hour to adjust for Daylight Saving Time where and when it is observed.

ST. STEPHEN
NEW BRUNSWICK

45°12'36.600" N
67°15'10.300" W
26.10 m
8104935
71607
WSS

Download Data

Hourly Data (August 2017)
Hourly Data Report for August 9, 2017
Temp Definition
°C
Dew Point Temp Definition
°C
Rel Hum Definition
%
Wind Dir Definition
10's deg

Wind Spd Definition
km/h
Visibility Definition
km
Stn Press Definition
kPa
Hmdx Definition


Wind Chill Definition


Weather Definition


TIME
00:00 10.5 9.8 96   0   101.20     LegendNANA
01:00 10.1 9.5 96   0   101.24     LegendNANA
02:00 9.1 8.5 96 29 1   101.27     LegendNANA
03:00 8.7 8.1 96 0 1   101.32     LegendNANA
04:00 7.6 7.1 96 0 1   101.34     LegendNANA
05:00 6.9 6.3 96   0   101.41     LegendNANA
06:00 7.6 7.1 97   0   101.46     LegendNANA
07:00 10.6 10.2 97   0   101.55     LegendNANA
08:00 14.9 13.4 91 24 3   101.59     LegendNANA
09:00 18.9 13.9 73 19 2   101.59     LegendNANA
10:00 22.1 12.6 55 21 12   101.57 25   LegendNANA
11:00 23.9 12.3 49 22 15   101.55 26   LegendNANA
12:00 25.2 12.0 44 22 12   101.50 27   LegendNANA
13:00 25.9 12.0 42 21 15   101.47 28   LegendNANA
14:00 26.3 12.6 42 22 12   101.44 29   LegendNANA
15:00 26.2 13.4 45 22 15   101.43 29   LegendNANA
16:00 26.3 13.3 45 22 16   101.44 29   LegendNANA
17:00 24.6 13.5 50 20 8   101.46 28   LegendNANA
18:00 23.9 13.4 52 19 11   101.49 27   LegendNANA
19:00 21.3 15.9 71 20 6   101.55 26   LegendNANA
20:00 20.8 13.7 64 20 8   101.61     LegendNANA
21:00 18.6 13.0 70 18 2   101.68     LegendNANA
22:00 15.4 13.2 87   0   101.70     LegendNANA
23:00 14.5 12.8 90   0   101.75     LegendNANA

Notes on Data Quality.

Legend

  • E = Estimated
  • M = Missing
  • NA = Not Available
  • ‡ = Partner data that is not subject to review by the National Climate Archives
Date modified: